TimeCDT,TemperatureF,Dew PointF,Humidity,Sea Level PressureIn,VisibilityMPH,Wind Direction,Wind SpeedMPH,Gust SpeedMPH,PrecipitationIn,Events,Conditions,WindDirDegrees,DateUTC
12:53 AM,41.0,37.9,89,30.13,10.0,Calm,Calm,-,N/A,,Overcast,0,2013-10-24 05:53:00
1:53 AM,42.1,36.0,79,30.14,10.0,SSW,3.5,-,N/A,,Overcast,210,2013-10-24 06:53:00
2:53 AM,42.1,37.0,82,30.15,10.0,Calm,Calm,-,N/A,,Overcast,0,2013-10-24 07:53:00
3:53 AM,42.1,37.9,85,30.13,10.0,Calm,Calm,-,N/A,,Overcast,0,2013-10-24 08:53:00
4:53 AM,42.1,39.0,89,30.15,10.0,Calm,Calm,-,N/A,,Overcast,0,2013-10-24 09:53:00
5:53 AM,43.0,39.0,86,30.16,10.0,Calm,Calm,-,N/A,,Overcast,0,2013-10-24 10:53:00
6:53 AM,42.1,36.0,79,30.17,10.0,Calm,Calm,-,N/A,,Overcast,0,2013-10-24 11:53:00
7:53 AM,42.1,37.9,85,30.19,10.0,Calm,Calm,-,N/A,,Mostly Cloudy,0,2013-10-24 12:53:00
8:53 AM,45.0,35.1,68,30.20,10.0,Calm,Calm,-,N/A,,Overcast,0,2013-10-24 13:53:00
9:53 AM,46.0,30.0,54,30.21,10.0,NNW,3.5,-,N/A,,Overcast,330,2013-10-24 14:53:00
10:53 AM,48.0,32.0,54,30.21,7.0,WSW,5.8,-,N/A,,Overcast,240,2013-10-24 15:53:00
11:53 AM,50.0,33.1,52,30.21,10.0,WNW,9.2,-,N/A,,Mostly Cloudy,290,2013-10-24 16:53:00
12:53 PM,50.0,34.0,54,30.20,10.0,WSW,5.8,-,N/A,,Overcast,250,2013-10-24 17:53:00
1:53 PM,48.9,34.0,56,30.19,10.0,West,9.2,-,N/A,,Overcast,280,2013-10-24 18:53:00
2:53 PM,48.0,33.1,56,30.21,10.0,NW,8.1,18.4,N/A,,Overcast,310,2013-10-24 19:53:00
3:53 PM,46.0,34.0,63,30.23,10.0,NW,9.2,-,N/A,,Mostly Cloudy,310,2013-10-24 20:53:00
4:53 PM,46.9,30.0,52,30.25,10.0,NW,8.1,-,N/A,,Mostly Cloudy,320,2013-10-24 21:53:00
5:53 PM,43.0,26.1,51,30.28,10.0,NNW,9.2,20.7,N/A,,Scattered Clouds,330,2013-10-24 22:53:00
6:53 PM,41.0,24.1,51,30.31,10.0,Calm,Calm,-,N/A,,Clear,0,2013-10-24 23:53:00
7:53 PM,37.9,25.0,60,30.33,10.0,Calm,Calm,-,N/A,,Clear,0,2013-10-25 00:53:00
8:53 PM,37.0,25.0,62,30.35,10.0,Calm,Calm,-,N/A,,Clear,0,2013-10-25 01:53:00
9:53 PM,36.0,25.0,64,30.36,10.0,Calm,Calm,-,N/A,,Clear,0,2013-10-25 02:53:00
10:53 PM,35.1,25.0,67,30.37,10.0,Calm,Calm,-,N/A,,Clear,0,2013-10-25 03:53:00
11:53 PM,33.1,25.0,72,30.38,10.0,Calm,Calm,-,N/A,,Clear,0,2013-10-25 04:53:00